| time (UTC) | temp C | wind direction | speed KPH | gust KPH | rain 1hr cm | rain 24hr cm | rain mn cm | humidity % | barometer mb |
| 20260508053347 | 11 | 160 | 17.7 | 0.0 | 0.00 | 0.00 | 0.00 | 100 | 1016.0 |
| 20260508051848 | 11 | 160 | 14.5 | 0.0 | 0.00 | 0.00 | 0.00 | 94 | 1015.0 |
| 20260508050348 | 11 | 160 | 14.5 | 0.0 | 0.00 | 0.00 | 0.00 | 94 | 1015.0 |
| 20260508044848 | 11 | 170 | 16.1 | 0.0 | 0.00 | 0.00 | 0.00 | 94 | 1015.0 |
| 20260508043348 | 11 | 170 | 17.7 | 0.0 | 0.00 | 0.00 | 0.00 | 94 | 1015.0 |
| 20260508041843 | 11 | 170 | 17.7 | 0.0 | 0.00 | 0.00 | 0.00 | 94 | 1015.0 |
| 20260508040349 | 11 | 170 | 17.7 | 0.0 | 0.00 | 0.00 | 0.00 | 94 | 1015.0 |
| 20260508034842 | 10 | 170 | 20.9 | 0.0 | 0.00 | 0.00 | 0.00 | 100 | 1015.0 |
| 20260508033348 | 10 | 170 | 20.9 | 0.0 | 0.00 | 0.00 | 0.00 | 100 | 1015.0 |
| 20260508031845 | 10 | 160 | 17.7 | 0.0 | 0.00 | 0.00 | 0.00 | 100 | 1015.0 |
| 20260508030348 | -17 | 170 | 24.1 | 0.0 | 0.00 | 0.00 | 0.00 | ||
| 20260508024848 | 11 | 170 | 24.1 | 0.0 | 0.00 | 0.00 | 0.00 | 88 | 1014.0 |
| 20260508023348 | 11 | 170 | 24.1 | 0.0 | 0.00 | 0.00 | 0.00 | 88 | 1014.0 |
| 20260508021849 | 11 | 170 | 24.1 | 0.0 | 0.00 | 0.00 | 0.00 | 88 | 1014.0 |
| 20260508020348 | 11 | 170 | 24.1 | 0.0 | 0.00 | 0.00 | 0.00 | 88 | 1014.0 |
| 20260508014845 | 11 | 170 | 24.1 | 0.0 | 0.00 | 0.00 | 0.00 | 88 | 1014.0 |
| 20260508013348 | 11 | 170 | 24.1 | 0.0 | 0.00 | 0.00 | 0.00 | 88 | 1014.0 |
| 20260508011848 | 11 | 170 | 24.1 | 0.0 | 0.00 | 0.00 | 0.00 | 88 | 1014.0 |
| 20260508010347 | -17 | 0.0 | 0.0 | 0.00 | 0.00 | 0.00 | |||
| 20260508004848 | 11 | 160 | 25.7 | 0.0 | 0.00 | 0.00 | 0.00 | 88 | 1014.0 |
| 20260508003347 | 11 | 160 | 22.5 | 0.0 | 0.00 | 0.00 | 0.00 | 94 | 1014.0 |
| 20260508001844 | 11 | 160 | 22.5 | 0.0 | 0.00 | 0.00 | 0.00 | 94 | 1014.0 |
| 20260508000349 | 11 | 160 | 22.5 | 0.0 | 0.00 | 0.00 | 0.00 | 94 | 1014.0 |
| 20260507234845 | 11 | 170 | 24.1 | 0.0 | 0.00 | 0.00 | 0.00 | 94 | 1014.0 |
| 20260507233347 | 11 | 170 | 24.1 | 0.0 | 0.00 | 0.00 | 0.00 | 94 | 1014.0 |
| 20260507231844 | 12 | 170 | 25.7 | 0.0 | 0.00 | 0.00 | 0.00 | 88 | 1014.0 |
| 20260507230347 | 12 | 170 | 25.7 | 0.0 | 0.00 | 0.00 | 0.00 | 88 | 1014.0 |
| 20260507224847 | 12 | 170 | 24.1 | 0.0 | 0.00 | 0.00 | 0.00 | 88 | 1015.0 |
| 20260507223509 | 12 | 170 | 24.1 | 0.0 | 0.00 | 0.00 | 0.00 | 88 | 1015.0 |
| 20260507221845 | 12 | 170 | 24.1 | 0.0 | 0.00 | 0.00 | 0.00 | 88 | 1014.0 |
| 20260507220347 | 12 | 170 | 24.1 | 0.0 | 0.00 | 0.00 | 0.00 | 88 | 1014.0 |
| 20260507214847 | 12 | 160 | 22.5 | 0.0 | 0.00 | 0.00 | 0.00 | 82 | 1014.0 |
| 20260507213349 | 13 | 160 | 29.0 | 0.0 | 0.00 | 0.00 | 0.00 | 82 | 1014.0 |
| 20260507211848 | 13 | 160 | 29.0 | 0.0 | 0.00 | 0.00 | 0.00 | 82 | 1014.0 |
| 20260507210348 | 13 | 160 | 29.0 | 0.0 | 0.00 | 0.00 | 0.00 | 82 | 1014.0 |
| 20260507204848 | 13 | 160 | 27.4 | 0.0 | 0.00 | 0.00 | 0.00 | 82 | 1014.0 |
| 20260507203348 | 13 | 160 | 27.4 | 0.0 | 0.00 | 0.00 | 0.00 | 82 | 1014.0 |
| 20260507201845 | 15 | 160 | 25.7 | 0.0 | 0.00 | 0.00 | 0.00 | 77 | 1014.0 |
| 20260507200348 | 15 | 160 | 25.7 | 0.0 | 0.00 | 0.00 | 0.00 | 77 | 1014.0 |
| 20260507194853 | 16 | 160 | 32.2 | 0.0 | 0.00 | 0.00 | 0.00 | 72 | 1014.0 |
| 20260507193347 | 16 | 160 | 32.2 | 0.0 | 0.00 | 0.00 | 0.00 | 72 | 1014.0 |
| 20260507191844 | 17 | 160 | 32.2 | 0.0 | 0.00 | 0.00 | 0.00 | 68 | 1014.0 |
| 20260507190348 | 17 | 160 | 32.2 | 0.0 | 0.00 | 0.00 | 0.00 | 68 | 1014.0 |
| 20260507184849 | 17 | 150 | 29.0 | 0.0 | 0.00 | 0.00 | 0.00 | 64 | 1014.0 |
| 20260507183347 | 17 | 150 | 29.0 | 0.0 | 0.00 | 0.00 | 0.00 | 64 | 1014.0 |
| 20260507181847 | 18 | 150 | 29.0 | 0.0 | 0.00 | 0.00 | 0.00 | 60 | 1013.0 |
| 20260507180347 | 18 | 150 | 29.0 | 0.0 | 0.00 | 0.00 | 0.00 | 60 | 1013.0 |
| 20260507174847 | 20 | 150 | 32.2 | 0.0 | 0.00 | 0.00 | 0.00 | 53 | 1013.0 |
| 20260507173348 | 20 | 150 | 32.2 | 0.0 | 0.00 | 0.00 | 0.00 | 53 | 1013.0 |
| 20260507171848 | 20 | 150 | 29.0 | 0.0 | 0.00 | 0.00 | 0.00 | 53 | 1013.0 |
| 20260507170347 | 20 | 150 | 29.0 | 0.0 | 0.00 | 0.00 | 0.00 | 53 | 1013.0 |
| 20260507164848 | 21 | 150 | 35.4 | 0.0 | 0.00 | 0.00 | 0.00 | 50 | 1013.0 |
| 20260507163348 | 21 | 150 | 35.4 | 0.0 | 0.00 | 0.00 | 0.00 | 50 | 1013.0 |
| 20260507161847 | 22 | 150 | 27.4 | 0.0 | 0.00 | 0.00 | 0.00 | 47 | 1013.0 |
| 20260507160347 | 22 | 150 | 27.4 | 0.0 | 0.00 | 0.00 | 0.00 | 47 | 1013.0 |
| 20260507154848 | 21 | 150 | 24.1 | 0.0 | 0.00 | 0.00 | 0.00 | 50 | 1013.0 |
| 20260507153348 | 21 | 150 | 24.1 | 0.0 | 0.00 | 0.00 | 0.00 | 50 | 1013.0 |
| 20260507151847 | 22 | 150 | 29.0 | 0.0 | 0.00 | 0.00 | 0.00 | 44 | 1013.0 |
| 20260507150347 | 22 | 150 | 29.0 | 0.0 | 0.00 | 0.00 | 0.00 | 44 | 1013.0 |
| 20260507144847 | 22 | 150 | 29.0 | 0.0 | 0.00 | 0.00 | 0.00 | 44 | 1013.0 |
| 20260507143349 | 22 | 150 | 29.0 | 0.0 | 0.00 | 0.00 | 0.00 | 44 | 1013.0 |
| 20260507141848 | 22 | 150 | 29.0 | 0.0 | 0.00 | 0.00 | 0.00 | 44 | 1014.0 |
| 20260507140347 | 22 | 150 | 29.0 | 0.0 | 0.00 | 0.00 | 0.00 | 44 | 1014.0 |
| 20260507134848 | 22 | 150 | 29.0 | 0.0 | 0.00 | 0.00 | 0.00 | 41 | 1014.0 |
| 20260507133347 | 22 | 150 | 29.0 | 0.0 | 0.00 | 0.00 | 0.00 | 41 | 1014.0 |
| 20260507131844 | 22 | 150 | 35.4 | 0.0 | 0.00 | 0.00 | 0.00 | 38 | 1014.0 |
| 20260507130347 | 22 | 150 | 35.4 | 0.0 | 0.00 | 0.00 | 0.00 | 38 | 1014.0 |
| 20260507124844 | 22 | 150 | 33.8 | 0.0 | 0.00 | 0.00 | 0.00 | 41 | 1014.0 |
| 20260507123425 | 22 | 150 | 33.8 | 0.0 | 0.00 | 0.00 | 0.00 | 41 | 1014.0 |
| 20260507121847 | 22 | 160 | 35.4 | 0.0 | 0.00 | 0.00 | 0.00 | 38 | 1014.0 |
| 20260507120347 | 22 | 160 | 35.4 | 0.0 | 0.00 | 0.00 | 0.00 | 38 | 1014.0 |
| 20260507114847 | 22 | 160 | 33.8 | 0.0 | 0.00 | 0.00 | 0.00 | 38 | 1015.0 |
| 20260507113409 | 22 | 150 | 32.2 | 0.0 | 0.00 | 0.00 | 0.00 | 38 | 1015.0 |
| 20260507111847 | 22 | 150 | 32.2 | 0.0 | 0.00 | 0.00 | 0.00 | 38 | 1015.0 |
| 20260507110347 | 22 | 150 | 32.2 | 0.0 | 0.00 | 0.00 | 0.00 | 38 | 1015.0 |
| 20260507104847 | 22 | 160 | 33.8 | 0.0 | 0.00 | 0.00 | 0.00 | 38 | 1015.0 |
| 20260507103347 | 22 | 160 | 33.8 | 0.0 | 0.00 | 0.00 | 0.00 | 38 | 1015.0 |
| 20260507101847 | 21 | 160 | 32.2 | 0.0 | 0.00 | 0.00 | 0.00 | 43 | 1015.0 |
| 20260507100348 | 21 | 160 | 32.2 | 0.0 | 0.00 | 0.00 | 0.00 | 43 | 1015.0 |
| 20260507094848 | 20 | 160 | 27.4 | 0.0 | 0.00 | 0.00 | 0.00 | 46 | 1015.0 |
| 20260507093348 | 20 | 160 | 27.4 | 0.0 | 0.00 | 0.00 | 0.00 | 46 | 1015.0 |
| 20260507091849 | 20 | 160 | 29.0 | 0.0 | 0.00 | 0.00 | 0.00 | 46 | 1015.0 |
| 20260507090348 | 20 | 160 | 29.0 | 0.0 | 0.00 | 0.00 | 0.00 | 46 | 1015.0 |
| 20260507084847 | 18 | 160 | 29.0 | 0.0 | 0.00 | 0.00 | 0.00 | 49 | 1015.0 |
| 20260507083348 | 18 | 160 | 29.0 | 0.0 | 0.00 | 0.00 | 0.00 | 49 | 1015.0 |
| 20260507081847 | 17 | 160 | 27.4 | 0.0 | 0.00 | 0.00 | 0.00 | 59 | 1015.0 |
| 20260507080348 | 17 | 160 | 27.4 | 0.0 | 0.00 | 0.00 | 0.00 | 59 | 1015.0 |
| 20260507074848 | 17 | 160 | 27.4 | 0.0 | 0.00 | 0.00 | 0.00 | 56 | 1015.0 |
| 20260507073347 | 17 | 160 | 27.4 | 0.0 | 0.00 | 0.00 | 0.00 | 56 | 1015.0 |
| 20260507071848 | 17 | 160 | 24.1 | 0.0 | 0.00 | 0.00 | 0.00 | 59 | 1016.0 |
| 20260507070347 | 17 | 160 | 24.1 | 0.0 | 0.00 | 0.00 | 0.00 | 59 | 1016.0 |
| 20260507064847 | 15 | 160 | 22.5 | 0.0 | 0.00 | 0.00 | 0.00 | 68 | 1016.0 |
| 20260507063347 | 15 | 160 | 22.5 | 0.0 | 0.00 | 0.00 | 0.00 | 68 | 1016.0 |
| 20260507061857 | 13 | 170 | 20.9 | 0.0 | 0.00 | 0.00 | 0.00 | 72 | 1016.0 |
| 20260507060347 | 13 | 170 | 20.9 | 0.0 | 0.00 | 0.00 | 0.00 | 72 | 1016.0 |
| 20260507054847 | 12 | 170 | 20.9 | 0.0 | 0.00 | 0.00 | 0.00 | 77 | 1016.0 |